Regional Weather Roundup
Issued by NWS

Home | Current Version | Previous Version | Text Only | Print | Product List | Glossary On
Versions: 1 2 3 4 5 6 7 8 9 10 11 12 13 14 15 16 17 18 19 20 21 22 23 24 25 26 27 28 29 30 31 32 33 34 35 36 37 38 39 40 41 42 43 44 45 46 47 48 49 50
000
ASUS43 KFSD 240810
RWRSD

WEATHER ROUNDUP FOR SOUTH DAKOTA
NATIONAL WEATHER SERVICE SIOUX FALLS SD
200 AM CST WED JAN 24 2018

NOTE: "FAIR" INDICATES FEW OR NO CLOUDS BELOW 12,000 FEET WITH NO
SIGNIFICANT WEATHER AND/OR OBSTRUCTIONS TO VISIBILITY.


SDZ001>005-009-010-012>017-240900-
NORTHWEST AND NORTH CENTRAL SOUTH DAKOTA

CITY           SKY/WX    TMP DP  RH WIND       PRES   REMARKS
BUFFALO          N/A     23  13  65 W14       29.99F WCI  11
FAITH            N/A     25  19  78 SW9       30.11F WCI  15
MOBRIDGE       CLEAR     15  12  88 CALM      30.10F
$$

SDZ012>016-024>037-041>051-057-063-072>074-240900-
SOUTHWEST AND SOUTH CENTRAL SOUTH DAKOTA

CITY           SKY/WX    TMP DP  RH WIND       PRES   REMARKS
RAPID CTY ARPT PTCLDY    18  12  77 S3        30.11F
PIERRE         CLEAR     24  21  88 W10       30.16F WCI  14
CUSTER         PTCLDY    17   8  67 W9        30.05F WCI   6
ELLSWORTH AFB  PTCLDY    23  13  66 S3        30.09F
PHILIP         CLEAR     22  19  89 NW3       30.17F
PINE RIDGE     CLEAR      4   1  88 NE5       30.17F WCI  -5
SPEARFISH        N/A     30  10  43 SW14      30.06F WCI  20
WINNER         FAIR      27  18  69 SW7       30.20F WCI  19
$$

SDZ004>011-016>023-039-040-240900-
NORTHEAST SOUTH DAKOTA

CITY           SKY/WX    TMP DP  RH WIND       PRES   REMARKS
ABERDEEN       CLOUDY    19  17  92 E3        30.18F FOG
WATERTOWN      FOG       20  19  96 NE7       30.15F VSB 1   WCI  11
BROOKINGS      FOG       16  14  92 CALM      30.18S VSB 1/2
SISSETON         N/A     20  18  92 NW6       30.19F WCI  12
$$

SDZ017-020-022-023-036>040-048>070-240900-
SOUTHEAST SOUTH DAKOTA

CITY           SKY/WX    TMP DP  RH WIND       PRES   REMARKS
SIOUX FALLS    FOG       20  18  92 CALM      30.20S VSB 1/4
HURON          CLEAR     13  12  96 SW3       30.18F
CHAMBERLAIN    CLEAR     19  19  98 S5        30.19S WCI  12
MITCHELL       CLEAR     18  15  88 SW6       30.21F WCI  10
YANKTON        CLEAR     16  13  88 NW3       30.22S
$$

ABBREVIATIONS USED IN REMARKS
   TC - TEMPERATURE IN CELSIUS
  WCI - WIND CHILL INDEX
   HX - HEAT INDEX
  VSB - VISIBILITY





USA.gov is the U.S. government's official web portal to all federal, state and local government web resources and services.